Change the Weather History Date:

Wednesday, September 25, 2002

  Actual Average Record
Temperature  
Mean Temperature 66 °F 68 °F  
Max Temperature 69 °F 78 °F 94 °F (1961)
Min Temperature 62 °F 57 °F 40 °F (1887)
Degree Days  
Heating Degree Days 0 2  
Month to date heating degree days 11  
Since 1 July heating degree days 11  
Cooling Degree Days 1 4  
Month to date cooling degree days 181  
Year to date cooling degree days 1458  
Growing Degree Days 16 (Base 50)    
Moisture  
Dew Point 58 °F    
Average Humidity 77    
Maximum Humidity 93    
Minimum Humidity 65    
Precipitation  
Precipitation 0.03 in 0.11 in 1.31 in (1956)
Month to date precipitation 2.67  
Year to date precipitation 31.27  
Snow  
Snow 0.00 in 0.00 in 0.00 in ()
Month to date snowfall 0.0  
Since 1 July snowfall 0.0  
Since 1 September snowfall 0.0  
Snow Depth -    
Sea Level Pressure  
Sea Level Pressure 30.16 in    
Wind  
Wind Speed 8 mph (NNE)    
Max Wind Speed 13 mph    
Max Gust Speed 18 mph    
Visibility 10 miles    
Events Rain    
T = Trace of Precipitation, MM = Missing Value Source: NWS Daily Summary

Daily Weather History Graph

Daily Weather History Graph

Search for Another Location

Airport or City:

Trip Planner

Search our weather history database for the weather conditions in past years. The results will help you decide how hot, cold, wet, or windy it might be!

Date:

Astronomy

Sep. 25, 2002 Rise Set
Actual Time 7:13 AM EDT 7:16 PM EDT
Civil Twilight 6:48 AM EDT 7:41 PM EDT
Nautical Twilight 6:19 AM EDT 8:11 PM EDT
Astronomical Twilight 5:49 AM EDT 8:40 PM EDT
Moon 9:35 PM EDT (9/25) 10:46 AM EDT (9/25)
Length of Visible Light 12h 53m
Length of Day
12h 02m
Waning Gibbous, 86% of the Moon is Illuminated
Sep 25
Waning Gibbous
Sep 29
Last Quarter
Oct 6
New
Oct 13
First Quarter
Oct 21
Full

Hourly Weather History & Observations

Time (EDT) Temp. Dew Point Humidity Pressure Visibility Wind Dir Wind Speed Gust Speed Precip Events Conditions
12:51 AM 69.1 °F 57.0 °F 65% 30.20 in 10.0 mi Variable 6.9 mph - N/A   Overcast
1:51 AM 68.0 °F 57.9 °F 70% 30.20 in 10.0 mi NNE 3.5 mph - N/A   Overcast
2:51 AM 66.0 °F 59.0 °F 78% 30.19 in 10.0 mi North 6.9 mph - N/A   Overcast
3:51 AM 66.9 °F 59.0 °F 76% 30.18 in 10.0 mi NNE 4.6 mph - N/A   Overcast
4:51 AM 66.9 °F 57.9 °F 73% 30.18 in 10.0 mi NNE 6.9 mph - N/A   Overcast
5:51 AM 66.0 °F 59.0 °F 78% 30.19 in 10.0 mi North 5.8 mph - N/A   Overcast
6:51 AM 64.0 °F 60.1 °F 87% 30.21 in 10.0 mi North 4.6 mph - 0.00 in Rain Light Rain
7:51 AM 64.0 °F 61.0 °F 90% 30.22 in 7.0 mi North 6.9 mph - 0.00 in Rain Light Rain
8:51 AM 63.0 °F 61.0 °F 93% 30.23 in 8.0 mi North 8.1 mph - 0.01 in Rain Light Rain
9:51 AM 64.0 °F 61.0 °F 90% 30.24 in 8.0 mi North 8.1 mph - 0.01 in Rain Light Rain
10:51 AM 64.0 °F 60.1 °F 87% 30.23 in 10.0 mi NNE 10.4 mph - 0.00 in Rain Light Rain
11:51 AM 64.9 °F 60.1 °F 84% 30.22 in 10.0 mi North 10.4 mph - 0.00 in   Overcast
12:51 PM 66.9 °F 59.0 °F 76% 30.19 in 10.0 mi North 9.2 mph 18.4 mph 0.00 in   Overcast
1:51 PM 66.9 °F 55.9 °F 68% 30.17 in 10.0 mi North 12.7 mph - N/A   Overcast
2:51 PM 68.0 °F 57.9 °F 70% 30.14 in 10.0 mi NNE 11.5 mph - 0.00 in Rain Light Rain
3:51 PM 68.0 °F 57.9 °F 70% 30.12 in 10.0 mi NNE 12.7 mph - 0.00 in   Overcast
4:51 PM 66.9 °F 59.0 °F 76% 30.10 in 10.0 mi North 9.2 mph - 0.00 in Rain Light Rain
5:51 PM 66.9 °F 57.9 °F 73% 30.12 in 10.0 mi North 9.2 mph - 0.00 in   Overcast
6:51 PM 66.9 °F 57.0 °F 70% 30.12 in 10.0 mi NNE 12.7 mph - N/A   Overcast
7:51 PM 66.9 °F 57.0 °F 70% 30.12 in 10.0 mi North 10.4 mph - N/A   Overcast
8:21 PM 66.2 °F 57.2 °F 73% 30.13 in 10.0 mi NNE 11.5 mph - N/A   Overcast
8:51 PM 66.9 °F 55.9 °F 68% 30.11 in 10.0 mi NNE 9.2 mph - N/A   Overcast
9:41 PM 66.2 °F 57.2 °F 73% 30.12 in 10.0 mi NE 11.5 mph - N/A   Overcast
9:51 PM 66.0 °F 57.9 °F 75% 30.10 in 10.0 mi NNE 9.2 mph - 0.00 in Rain Light Rain
10:16 PM 66.2 °F 57.2 °F 73% 30.12 in 10.0 mi NNE 10.4 mph - 0.00 in   Overcast
10:51 PM 66.0 °F 59.0 °F 78% 30.11 in 9.0 mi NNE 8.1 mph - 0.00 in Rain Light Rain
11:51 PM 62.1 °F 60.1 °F 93% 30.10 in 7.0 mi NNE 9.2 mph - 0.01 in Rain Light Rain